Regional Weather Roundup
Issued by NWS Glasgow, MT

Home | Current Version | Previous Version | Text Only | Print | Product List | Glossary On
Versions: 1 2 3 4 5 6 7 8 9 10 11 12 13 14 15 16 17 18 19 20 21 22 23 24 25 26 27 28 29 30 31 32 33 34 35 36 37 38 39 40 41 42 43 44 45 46 47 48 49 50
000
ASUS45 KGGW 262015
RWRGGW
HOURLY REGIONAL WEATHER ROUNDUP FOR NORTHEAST MONTANA
NATIONAL WEATHER SERVICE GLASGOW MONTANA
200 PM MDT TUE SEP 26 2017

NOTE: "FAIR" INDICATES FEW OR NO CLOUDS BELOW 12,000 FEET WITH NO
SIGNIFICANT WEATHER AND/OR OBSTRUCTIONS TO VISISBILITY.

NORTHEAST MONTANA


CITY           SKY/WX    TMP DP  RH WIND       PRES   REMARKS
GLASGOW        SUNNY     64  36  35 S6        30.08F
WOLF POINT     SUNNY     61  36  39 S7        30.09F
JORDAN           N/A     67  38  34 W10       30.09F
WINNETT          N/A     66  37  34 W3G20       N/A
SIDNEY         NOT AVBL
GLENDIVE       PTSUNNY   57  40  52 CALM      30.12F
SCOBEY           N/A     62  35  36 SW5       30.06

FORT PECK REPORTS


CITY           SKY/WX    TMP DP  RH WIND       PRES   REMARKS
FORT PECK        N/A     60  42  51 S9          N/A
THE PINES        N/A     65  37  35 S5          N/A

SOUTHEAST MONTANA


CITY           SKY/WX    TMP DP  RH WIND       PRES   REMARKS
BILLINGS       PTSUNNY   64  36  35 NW8       30.15F
MILES CITY     SUNNY     56  45  66 SW6       30.14F
BAKER          CLOUDY    54  41  61 NW12      30.13F
LIVINGSTON     CLOUDY    62  39  42 W14       30.19F

CENTRAL MONTANA


CITY           SKY/WX    TMP DP  RH WIND       PRES   REMARKS
HAVRE          SUNNY     68  39  34 VRB5      30.08F
LEWISTOWN      NOT AVBL
GREAT FALLS    SUNNY     66  35  31 W6        30.14F
CUT BANK       SUNNY     66  37  34 MISG      30.13F
HELENA         MOSUNNY   64  40  41 SW3       30.18F
BUTTE          PTSUNNY   55  39  54 NW5       30.25F
BOZEMAN        PTSUNNY   58  40  51 CALM      30.22F

WESTERN MONTANA


CITY           SKY/WX    TMP DP  RH WIND       PRES   REMARKS
MISSOULA       PTSUNNY   62  45  53 CALM      30.21F
KALISPELL      NOT AVBL

NORTH DAKOTA


CITY           SKY/WX    TMP DP  RH WIND       PRES   REMARKS
WILLISTON      CLOUDY    55  43  63 W7        30.11S
DICKINSON      CLOUDY    52  42  69 CALM      30.10S
MINOT          CLOUDY    55  43  63 CALM      30.10F
BISMARCK       CLOUDY    54  43  66 CALM      30.13S

SOUTHERN SASKATCHEWAN


CITY           SKY/WX    TMP DP  RH WIND       PRES   REMARKS
REGINA         PTSUNNY   63  34  34 SW10      30.03F
MOOSE JAW      PTSUNNY   64  41  42 SW14      30.04F
ESTEVAN        PTSUNNY   54  43  66 W9        30.09F
SWIFT CURRENT  PTSUNNY   66  34  30 NW9       30.03F




USA.gov is the U.S. government's official web portal to all federal, state and local government web resources and services.